Year,Month,Day,Hour,Minute,Value (Times are PST for temperature in C)
2019,03,18,00,00,6.20
2019,03,18,00,01,6.20
2019,03,18,00,02,6.20
2019,03,18,00,03,6.10
2019,03,18,00,04,6.10
2019,03,18,00,05,6.00
2019,03,18,00,06,6.00
2019,03,18,00,07,5.90
2019,03,18,00,08,5.90
2019,03,18,00,09,5.90
2019,03,18,00,10,5.80
2019,03,18,00,11,5.80
2019,03,18,00,12,5.80
2019,03,18,00,13,5.80
2019,03,18,00,14,5.70
2019,03,18,00,15,5.70
2019,03,18,00,16,5.70
2019,03,18,00,17,5.70
2019,03,18,00,18,5.70
2019,03,18,00,19,5.60
2019,03,18,00,20,5.60
2019,03,18,00,21,5.60
2019,03,18,00,22,5.60
2019,03,18,00,23,5.60
2019,03,18,00,24,5.60
2019,03,18,00,25,5.60
2019,03,18,00,26,5.50
2019,03,18,00,27,5.50
2019,03,18,00,28,5.50
2019,03,18,00,29,5.50
2019,03,18,00,30,5.50
2019,03,18,00,31,5.50
2019,03,18,00,32,5.50
2019,03,18,00,33,5.50
2019,03,18,00,34,5.50
2019,03,18,00,35,5.40
2019,03,18,00,36,5.40
2019,03,18,00,37,5.40
2019,03,18,00,38,5.40
2019,03,18,00,39,5.40
2019,03,18,00,40,5.40
2019,03,18,00,41,5.40
2019,03,18,00,42,5.40
2019,03,18,00,43,5.40
2019,03,18,00,44,5.30
2019,03,18,00,45,5.30
2019,03,18,00,46,5.30
2019,03,18,00,47,5.30
2019,03,18,00,48,5.30
2019,03,18,00,49,5.30
2019,03,18,00,50,5.30
2019,03,18,00,51,5.30
2019,03,18,00,52,5.30
2019,03,18,00,53,5.20
2019,03,18,00,54,5.20
2019,03,18,00,55,5.20
2019,03,18,00,56,5.20
2019,03,18,00,57,5.30
2019,03,18,00,58,5.30
2019,03,18,00,59,5.30
2019,03,18,01,00,5.30
2019,03,18,01,01,5.30
2019,03,18,01,02,5.30
2019,03,18,01,03,5.30
2019,03,18,01,04,5.30
2019,03,18,01,05,5.30
2019,03,18,01,06,5.30
2019,03,18,01,07,5.30
2019,03,18,01,08,5.30
2019,03,18,01,09,5.30
2019,03,18,01,10,5.30
2019,03,18,01,11,5.30
2019,03,18,01,12,5.30
2019,03,18,01,13,5.30
2019,03,18,01,14,5.30
2019,03,18,01,15,5.30
2019,03,18,01,16,5.30
2019,03,18,01,17,5.30
2019,03,18,01,18,5.30
2019,03,18,01,19,5.30
2019,03,18,01,20,5.30
2019,03,18,01,21,5.30
2019,03,18,01,22,5.40
2019,03,18,01,23,5.40
2019,03,18,01,24,5.50
2019,03,18,01,25,5.50
2019,03,18,01,26,5.60
2019,03,18,01,27,5.60
2019,03,18,01,28,5.70
2019,03,18,01,29,5.70
2019,03,18,01,30,5.70
2019,03,18,01,31,5.70
2019,03,18,01,32,5.80
2019,03,18,01,33,5.80
2019,03,18,01,34,5.90
2019,03,18,01,35,6.00
2019,03,18,01,36,6.00
2019,03,18,01,37,6.00
2019,03,18,01,38,6.00
2019,03,18,01,39,6.00
2019,03,18,01,40,6.00
2019,03,18,01,41,6.00
2019,03,18,01,42,6.10
2019,03,18,01,43,6.10
2019,03,18,01,44,6.20
2019,03,18,01,45,6.30
2019,03,18,01,46,6.30
2019,03,18,01,47,6.40
2019,03,18,01,48,6.50
2019,03,18,01,49,6.70
2019,03,18,01,50,6.80
2019,03,18,01,51,6.80
2019,03,18,01,52,6.80
2019,03,18,01,53,6.70
2019,03,18,01,54,6.60
2019,03,18,01,55,6.50
2019,03,18,01,56,6.40
2019,03,18,01,57,6.30
2019,03,18,01,58,6.20
2019,03,18,01,59,6.10
2019,03,18,02,00,6.00
2019,03,18,02,01,6.00
2019,03,18,02,02,5.90
2019,03,18,02,03,5.80
2019,03,18,02,04,5.80
2019,03,18,02,05,5.70
2019,03,18,02,06,5.60
2019,03,18,02,07,5.70
2019,03,18,02,08,5.80
2019,03,18,02,09,5.80
2019,03,18,02,10,5.80
2019,03,18,02,11,5.80
2019,03,18,02,12,5.80
2019,03,18,02,13,5.90
2019,03,18,02,14,6.00
2019,03,18,02,15,6.00
2019,03,18,02,16,6.10
2019,03,18,02,17,6.20
2019,03,18,02,18,6.30
2019,03,18,02,19,6.40
2019,03,18,02,20,6.40
2019,03,18,02,21,6.40
2019,03,18,02,22,6.40
2019,03,18,02,23,6.50
2019,03,18,02,24,6.60
2019,03,18,02,25,6.70
2019,03,18,02,26,6.70
2019,03,18,02,27,6.70
2019,03,18,02,28,6.60
2019,03,18,02,29,6.60
2019,03,18,02,30,6.60
2019,03,18,02,31,6.60
2019,03,18,02,32,6.70
2019,03,18,02,33,6.70
2019,03,18,02,34,6.80
2019,03,18,02,35,7.00
2019,03,18,02,36,7.10
2019,03,18,02,37,7.20
2019,03,18,02,38,7.20
2019,03,18,02,39,7.20
2019,03,18,02,40,7.20
2019,03,18,02,41,7.20
2019,03,18,02,42,7.10
2019,03,18,02,43,7.10
2019,03,18,02,44,7.00
2019,03,18,02,45,7.00
2019,03,18,02,46,6.90
2019,03,18,02,47,6.90
2019,03,18,02,48,6.80
2019,03,18,02,49,6.80
2019,03,18,02,50,6.80
2019,03,18,02,51,6.70
2019,03,18,02,52,6.70
2019,03,18,02,53,6.70
2019,03,18,02,54,6.70
2019,03,18,02,55,6.70
2019,03,18,02,56,6.70
2019,03,18,02,57,6.70
2019,03,18,02,58,6.70
2019,03,18,02,59,6.70
2019,03,18,03,00,6.60
2019,03,18,03,01,6.60
2019,03,18,03,02,6.60
2019,03,18,03,03,6.60
2019,03,18,03,04,6.60
2019,03,18,03,05,6.60
2019,03,18,03,06,6.60
2019,03,18,03,07,6.50
2019,03,18,03,08,6.50
2019,03,18,03,09,6.60
2019,03,18,03,10,6.60
2019,03,18,03,11,6.80
2019,03,18,03,12,6.80
2019,03,18,03,13,6.80
2019,03,18,03,14,6.80
2019,03,18,03,15,6.60
2019,03,18,03,16,6.60
2019,03,18,03,17,6.60
2019,03,18,03,18,6.60
2019,03,18,03,19,6.70
2019,03,18,03,20,6.70
2019,03,18,03,21,6.70
2019,03,18,03,22,6.70
2019,03,18,03,23,6.60
2019,03,18,03,24,6.70
2019,03,18,03,25,6.80
2019,03,18,03,26,6.80
2019,03,18,03,27,6.80
2019,03,18,03,28,6.80
2019,03,18,03,29,6.80
2019,03,18,03,30,6.90
2019,03,18,03,31,7.00
2019,03,18,03,32,7.10
2019,03,18,03,33,7.20
2019,03,18,03,34,7.30
2019,03,18,03,35,7.50
2019,03,18,03,36,7.60
2019,03,18,03,37,7.60
2019,03,18,03,38,7.60
2019,03,18,03,39,7.60
2019,03,18,03,40,7.60
2019,03,18,03,41,7.60
2019,03,18,03,42,7.60
2019,03,18,03,43,7.60
2019,03,18,03,44,7.50
2019,03,18,03,45,7.40
2019,03,18,03,46,7.30
2019,03,18,03,47,7.30
2019,03,18,03,48,7.20
2019,03,18,03,49,7.20
2019,03,18,03,50,7.10
2019,03,18,03,51,7.00
2019,03,18,03,52,6.90
2019,03,18,03,53,6.90
2019,03,18,03,54,6.80
2019,03,18,03,55,6.70
2019,03,18,03,56,6.70
2019,03,18,03,57,6.60
2019,03,18,03,58,6.60
2019,03,18,03,59,6.60
2019,03,18,04,00,6.60
2019,03,18,04,01,6.60
2019,03,18,04,02,6.60
2019,03,18,04,03,6.70
2019,03,18,04,04,6.70
2019,03,18,04,05,6.70
2019,03,18,04,06,6.70
2019,03,18,04,07,6.70
2019,03,18,04,08,6.80
2019,03,18,04,09,6.80
2019,03,18,04,10,6.80
2019,03,18,04,11,6.90
2019,03,18,04,12,7.10
2019,03,18,04,13,7.10
2019,03,18,04,14,7.00
2019,03,18,04,15,6.90
2019,03,18,04,16,6.90
2019,03,18,04,17,6.90
2019,03,18,04,18,6.90
2019,03,18,04,19,6.90
2019,03,18,04,20,7.10
2019,03,18,04,21,7.20
2019,03,18,04,22,7.20
2019,03,18,04,23,7.20
2019,03,18,04,24,7.20
2019,03,18,04,25,7.20
2019,03,18,04,26,7.20
2019,03,18,04,27,7.20
2019,03,18,04,28,7.20
2019,03,18,04,29,7.10
2019,03,18,04,30,7.10
2019,03,18,04,31,7.00
2019,03,18,04,32,7.00
2019,03,18,04,33,6.90
2019,03,18,04,34,6.90
2019,03,18,04,35,6.90
2019,03,18,04,36,7.00
2019,03,18,04,37,7.00
2019,03,18,04,38,7.00
2019,03,18,04,39,6.90
2019,03,18,04,40,6.90
2019,03,18,04,41,6.80
2019,03,18,04,42,6.80
2019,03,18,04,43,6.80
2019,03,18,04,44,6.80
2019,03,18,04,45,6.80
2019,03,18,04,46,6.80
2019,03,18,04,47,6.80
2019,03,18,04,48,6.80
2019,03,18,04,49,6.80
2019,03,18,04,50,6.80
2019,03,18,04,51,6.70
2019,03,18,04,52,6.70
2019,03,18,04,53,6.70
2019,03,18,04,54,6.60
2019,03,18,04,55,6.60
2019,03,18,04,56,6.60
2019,03,18,04,57,6.60
2019,03,18,04,58,6.50
2019,03,18,04,59,6.50
2019,03,18,05,00,6.40
2019,03,18,05,01,6.40
2019,03,18,05,02,6.30
2019,03,18,05,03,6.20
2019,03,18,05,04,6.10
2019,03,18,05,05,6.10
2019,03,18,05,06,6.00
2019,03,18,05,07,5.90
2019,03,18,05,08,5.80
2019,03,18,05,09,5.80
2019,03,18,05,10,5.70
2019,03,18,05,11,5.70
2019,03,18,05,12,5.60
2019,03,18,05,13,5.60
2019,03,18,05,14,5.60
2019,03,18,05,15,5.50
2019,03,18,05,16,5.40
2019,03,18,05,17,5.40
2019,03,18,05,18,5.30
2019,03,18,05,19,5.30
2019,03,18,05,20,5.20
2019,03,18,05,21,5.20
2019,03,18,05,22,5.20
2019,03,18,05,23,5.10
2019,03,18,05,24,5.10
2019,03,18,05,25,5.20
2019,03,18,05,26,5.20
2019,03,18,05,27,5.20
2019,03,18,05,28,5.20
2019,03,18,05,29,5.20
2019,03,18,05,30,5.20
2019,03,18,05,31,5.20
2019,03,18,05,32,5.30
2019,03,18,05,33,5.30
2019,03,18,05,34,5.30
2019,03,18,05,35,5.30
2019,03,18,05,36,5.40
2019,03,18,05,37,5.40
2019,03,18,05,38,5.40
2019,03,18,05,39,5.40
2019,03,18,05,40,5.50
2019,03,18,05,41,5.60
2019,03,18,05,42,5.90
2019,03,18,05,43,6.10
2019,03,18,05,44,6.20
2019,03,18,05,45,6.20
2019,03,18,05,46,6.20
2019,03,18,05,47,6.20
2019,03,18,05,48,6.30
2019,03,18,05,49,6.30
2019,03,18,05,50,6.30
2019,03,18,05,51,6.30
2019,03,18,05,52,6.40
2019,03,18,05,53,6.40
2019,03,18,05,54,6.40
2019,03,18,05,55,6.30
2019,03,18,05,56,6.30
2019,03,18,05,57,6.30
2019,03,18,05,58,6.30
2019,03,18,05,59,6.30
2019,03,18,06,00,6.30
2019,03,18,06,01,6.30
2019,03,18,06,02,6.30
2019,03,18,06,03,6.20
2019,03,18,06,04,6.20
2019,03,18,06,05,6.10
2019,03,18,06,06,6.10
2019,03,18,06,07,6.00
2019,03,18,06,08,5.90
2019,03,18,06,09,5.80
2019,03,18,06,10,5.70
2019,03,18,06,11,5.60
2019,03,18,06,12,5.50
2019,03,18,06,13,5.40
2019,03,18,06,14,5.30
2019,03,18,06,15,5.20
2019,03,18,06,16,5.10
2019,03,18,06,17,5.00
2019,03,18,06,18,4.90
2019,03,18,06,19,4.90
2019,03,18,06,20,4.80
2019,03,18,06,21,4.70
2019,03,18,06,22,4.60
2019,03,18,06,23,4.60
2019,03,18,06,24,4.50
2019,03,18,06,25,4.40
2019,03,18,06,26,4.40
2019,03,18,06,27,4.30
2019,03,18,06,28,4.30
2019,03,18,06,29,4.20
2019,03,18,06,30,4.20
2019,03,18,06,31,4.20
2019,03,18,06,32,4.10
2019,03,18,06,33,4.10
2019,03,18,06,34,4.10
2019,03,18,06,35,4.00
2019,03,18,06,36,4.00
2019,03,18,06,37,3.90
2019,03,18,06,38,3.90
2019,03,18,06,39,3.90
2019,03,18,06,40,3.80
2019,03,18,06,41,3.80
2019,03,18,06,42,3.80
2019,03,18,06,43,3.70
2019,03,18,06,44,3.70
2019,03,18,06,45,3.70
2019,03,18,06,46,3.70
2019,03,18,06,47,3.70
2019,03,18,06,48,3.70
2019,03,18,06,49,3.60
2019,03,18,06,50,3.60
2019,03,18,06,51,3.60
2019,03,18,06,52,3.60
2019,03,18,06,53,3.50
2019,03,18,06,54,3.50
2019,03,18,06,55,3.50
2019,03,18,06,56,3.40
2019,03,18,06,57,3.40
2019,03,18,06,58,3.40
2019,03,18,06,59,3.40
2019,03,18,07,00,3.30
2019,03,18,07,01,3.30
2019,03,18,07,02,3.30
2019,03,18,07,03,3.30
2019,03,18,07,04,3.20
2019,03,18,07,05,3.20
2019,03,18,07,06,3.20
2019,03,18,07,07,3.10
2019,03,18,07,08,3.10
2019,03,18,07,09,3.10
2019,03,18,07,10,3.10
2019,03,18,07,11,3.10
2019,03,18,07,12,3.10
2019,03,18,07,13,3.10
2019,03,18,07,14,3.10
2019,03,18,07,15,3.10
2019,03,18,07,16,3.00
2019,03,18,07,17,3.00
2019,03,18,07,18,3.00
2019,03,18,07,19,3.00
2019,03,18,07,20,2.90
2019,03,18,07,21,2.90
2019,03,18,07,22,2.90
2019,03,18,07,23,2.90
2019,03,18,07,24,2.90
2019,03,18,07,25,2.90
2019,03,18,07,26,2.90
2019,03,18,07,27,2.90
2019,03,18,07,28,2.90
2019,03,18,07,29,2.90
2019,03,18,07,30,2.90
2019,03,18,07,31,2.80
2019,03,18,07,32,2.80
2019,03,18,07,33,2.80
2019,03,18,07,34,2.80
2019,03,18,07,35,2.80
2019,03,18,07,36,2.80
2019,03,18,07,37,2.80
2019,03,18,07,38,2.80
2019,03,18,07,39,2.80
2019,03,18,07,40,2.70
2019,03,18,07,41,2.70
2019,03,18,07,42,2.70
2019,03,18,07,43,2.70
2019,03,18,07,44,2.70
2019,03,18,07,45,2.80
2019,03,18,07,46,2.70
2019,03,18,07,47,2.70
2019,03,18,07,48,2.80
2019,03,18,07,49,2.70
2019,03,18,07,50,2.70
2019,03,18,07,51,2.70
2019,03,18,07,52,2.70
2019,03,18,07,53,2.70
2019,03,18,07,54,2.70
2019,03,18,07,55,2.70
2019,03,18,07,56,2.70
2019,03,18,07,57,2.70
2019,03,18,07,58,2.70
2019,03,18,07,59,2.70
2019,03,18,08,00,2.70
2019,03,18,08,01,2.70
2019,03,18,08,02,2.70
2019,03,18,08,03,2.70
2019,03,18,08,04,2.70
2019,03,18,08,05,2.70
2019,03,18,08,06,2.70
2019,03,18,08,07,2.70
2019,03,18,08,08,2.70
2019,03,18,08,09,2.70
2019,03,18,08,10,2.70
2019,03,18,08,11,2.70
2019,03,18,08,12,2.70
2019,03,18,08,13,2.70
2019,03,18,08,14,2.80
2019,03,18,08,15,2.80
2019,03,18,08,16,2.80
2019,03,18,08,17,2.80
2019,03,18,08,18,2.80
2019,03,18,08,19,2.90
2019,03,18,08,20,2.90
2019,03,18,08,21,2.90
2019,03,18,08,22,2.90
2019,03,18,08,23,3.00
2019,03,18,08,24,3.00
2019,03,18,08,25,3.00
2019,03,18,08,26,3.10
2019,03,18,08,27,3.10
2019,03,18,08,28,3.20
2019,03,18,08,29,3.20
2019,03,18,08,30,3.30
2019,03,18,08,31,3.30
2019,03,18,08,32,3.40
2019,03,18,08,33,3.40
2019,03,18,08,34,3.50
2019,03,18,08,35,3.50
2019,03,18,08,36,3.60
2019,03,18,08,37,3.70
2019,03,18,08,38,3.80
2019,03,18,08,39,4.10
2019,03,18,08,40,4.30
2019,03,18,08,41,4.50
2019,03,18,08,42,4.80
2019,03,18,08,43,5.10
2019,03,18,08,44,5.50
2019,03,18,08,45,5.80
2019,03,18,08,46,6.10
2019,03,18,08,47,6.30
2019,03,18,08,48,6.50
2019,03,18,08,49,6.70
2019,03,18,08,50,6.80
2019,03,18,08,51,6.90
2019,03,18,08,52,7.00
2019,03,18,08,53,7.10
2019,03,18,08,54,7.20
2019,03,18,08,55,7.20
2019,03,18,08,56,7.40
2019,03,18,08,57,7.50
2019,03,18,08,58,7.70
2019,03,18,08,59,7.80
2019,03,18,09,00,8.00
2019,03,18,09,01,8.10
2019,03,18,09,02,8.20
2019,03,18,09,03,8.30
2019,03,18,09,04,8.50
2019,03,18,09,05,8.60
2019,03,18,09,06,8.70
2019,03,18,09,07,8.80
2019,03,18,09,08,8.90
2019,03,18,09,09,9.10
2019,03,18,09,10,9.20
2019,03,18,09,11,9.30
2019,03,18,09,12,9.40
2019,03,18,09,13,9.50
2019,03,18,09,14,9.60
2019,03,18,09,15,9.70
2019,03,18,09,16,9.80
2019,03,18,09,17,9.90
2019,03,18,09,18,10.00
2019,03,18,09,19,10.00
2019,03,18,09,20,10.10
2019,03,18,09,21,10.20
2019,03,18,09,22,10.40
2019,03,18,09,23,10.50
2019,03,18,09,24,10.50
2019,03,18,09,25,10.60
2019,03,18,09,26,10.70
2019,03,18,09,27,10.80
2019,03,18,09,28,10.80
2019,03,18,09,29,10.90
2019,03,18,09,30,11.10
2019,03,18,09,31,11.20
2019,03,18,09,32,11.20
2019,03,18,09,33,11.30
2019,03,18,09,34,11.30
2019,03,18,09,35,11.30
2019,03,18,09,36,11.40
2019,03,18,09,37,11.40
2019,03,18,09,38,11.40
2019,03,18,09,39,11.50
2019,03,18,09,40,11.50
2019,03,18,09,41,11.60
2019,03,18,09,42,11.60
2019,03,18,09,43,11.60
2019,03,18,09,44,11.70
2019,03,18,09,45,11.70
2019,03,18,09,46,11.80
2019,03,18,09,47,11.90
2019,03,18,09,48,12.00
2019,03,18,09,49,12.00
2019,03,18,09,50,12.10
2019,03,18,09,51,12.10
2019,03,18,09,52,12.20
2019,03,18,09,53,12.30
2019,03,18,09,54,12.40
2019,03,18,09,55,12.50
2019,03,18,09,56,12.60
2019,03,18,09,57,12.60
2019,03,18,09,58,12.60
2019,03,18,09,59,12.60
2019,03,18,10,00,12.60
2019,03,18,10,01,12.60
2019,03,18,10,02,12.70
2019,03,18,10,03,12.70
2019,03,18,10,04,12.70
2019,03,18,10,05,12.70
2019,03,18,10,06,12.80
2019,03,18,10,07,12.80
2019,03,18,10,08,12.80
2019,03,18,10,09,12.90
2019,03,18,10,10,12.90
2019,03,18,10,11,12.90
2019,03,18,10,12,12.90
2019,03,18,10,13,12.90
2019,03,18,10,14,13.00
2019,03,18,10,15,13.10
2019,03,18,10,16,13.10
2019,03,18,10,17,13.20
2019,03,18,10,18,13.20
2019,03,18,10,19,13.20
2019,03,18,10,20,13.30
2019,03,18,10,21,13.30
2019,03,18,10,22,13.30
2019,03,18,10,23,13.30
2019,03,18,10,24,13.40
2019,03,18,10,25,13.40
2019,03,18,10,26,13.40
2019,03,18,10,27,13.40
2019,03,18,10,28,13.40
2019,03,18,10,29,13.40
2019,03,18,10,30,13.40
2019,03,18,10,31,13.40
2019,03,18,10,32,13.30
2019,03,18,10,33,13.30
2019,03,18,10,34,13.30
2019,03,18,10,35,13.30
2019,03,18,10,36,13.20
2019,03,18,10,37,13.20
2019,03,18,10,38,13.20
2019,03,18,10,39,13.10
2019,03,18,10,40,13.10
2019,03,18,10,41,13.10
2019,03,18,10,42,13.10
2019,03,18,10,43,13.10
2019,03,18,10,44,13.10
2019,03,18,10,45,13.10
2019,03,18,10,46,13.10
2019,03,18,10,47,13.10
2019,03,18,10,48,13.10
2019,03,18,10,49,13.00
2019,03,18,10,50,13.00
2019,03,18,10,51,12.90
2019,03,18,10,52,12.90
2019,03,18,10,53,12.90
2019,03,18,10,54,12.90
2019,03,18,10,55,12.90
2019,03,18,10,56,12.90
2019,03,18,10,57,12.90
2019,03,18,10,58,12.90
2019,03,18,10,59,12.90
2019,03,18,11,00,12.90
2019,03,18,11,01,12.90
2019,03,18,11,02,12.90
2019,03,18,11,03,12.80
2019,03,18,11,04,12.80
2019,03,18,11,05,12.80
2019,03,18,11,06,12.80
2019,03,18,11,07,12.80
2019,03,18,11,08,12.80
2019,03,18,11,09,12.80
2019,03,18,11,10,12.80
2019,03,18,11,11,12.80
2019,03,18,11,12,12.80
2019,03,18,11,13,12.90
2019,03,18,11,14,12.90
2019,03,18,11,15,13.00
2019,03,18,11,16,13.00
2019,03,18,11,17,13.10
2019,03,18,11,18,13.10
2019,03,18,11,19,13.20
2019,03,18,11,20,13.20
2019,03,18,11,21,13.30
2019,03,18,11,22,13.30
2019,03,18,11,23,13.30
2019,03,18,11,24,13.30
2019,03,18,11,25,13.40
2019,03,18,11,26,13.40
2019,03,18,11,27,13.40
2019,03,18,11,28,13.40
2019,03,18,11,29,13.40
2019,03,18,11,30,13.40
2019,03,18,11,31,13.40
2019,03,18,11,32,13.40
2019,03,18,11,33,13.40
2019,03,18,11,34,13.30
2019,03,18,11,35,13.30
2019,03,18,11,36,13.40
2019,03,18,11,37,13.40
2019,03,18,11,38,13.40
2019,03,18,11,39,13.40
2019,03,18,11,40,13.40
2019,03,18,11,41,13.40
2019,03,18,11,42,13.50
2019,03,18,11,43,13.40
2019,03,18,11,44,13.40
2019,03,18,11,45,13.40
2019,03,18,11,46,13.40
2019,03,18,11,47,13.40
2019,03,18,11,48,13.40
2019,03,18,11,49,13.40
2019,03,18,11,50,13.40
2019,03,18,11,51,13.40
2019,03,18,11,52,13.40
2019,03,18,11,53,13.40
2019,03,18,11,54,13.40
2019,03,18,11,55,13.40
2019,03,18,11,56,13.40
2019,03,18,11,57,13.40
2019,03,18,11,58,13.40
2019,03,18,11,59,13.40
2019,03,18,12,00,13.40
2019,03,18,12,01,13.40
2019,03,18,12,02,13.40
2019,03,18,12,03,13.40
2019,03,18,12,04,13.40
2019,03,18,12,05,13.50
2019,03,18,12,06,13.50
2019,03,18,12,07,13.50
2019,03,18,12,08,13.50
2019,03,18,12,09,13.60
2019,03,18,12,10,13.60
2019,03,18,12,11,13.60
2019,03,18,12,12,13.60
2019,03,18,12,13,13.60
2019,03,18,12,14,13.70
2019,03,18,12,15,13.70
2019,03,18,12,16,13.80
2019,03,18,12,17,13.80
2019,03,18,12,18,13.80
2019,03,18,12,19,13.80
2019,03,18,12,20,13.80
2019,03,18,12,21,13.80
2019,03,18,12,22,13.80
2019,03,18,12,23,13.90
2019,03,18,12,24,13.90
2019,03,18,12,25,14.00
2019,03,18,12,26,14.00
2019,03,18,12,27,14.10
2019,03,18,12,28,14.10
2019,03,18,12,29,14.10
2019,03,18,12,30,14.20
2019,03,18,12,31,14.20
2019,03,18,12,32,14.20
2019,03,18,12,33,14.30
2019,03,18,12,34,14.40
2019,03,18,12,35,14.40
2019,03,18,12,36,14.50
2019,03,18,12,37,14.50
2019,03,18,12,38,14.60
2019,03,18,12,39,14.60
2019,03,18,12,40,14.70
2019,03,18,12,41,14.70
2019,03,18,12,42,14.60
2019,03,18,12,43,14.60
2019,03,18,12,44,14.70
2019,03,18,12,45,14.70
2019,03,18,12,46,14.80
2019,03,18,12,47,14.80
2019,03,18,12,48,14.90
2019,03,18,12,49,14.90
2019,03,18,12,50,15.00
2019,03,18,12,51,15.00
2019,03,18,12,52,15.00
2019,03,18,12,53,15.00
2019,03,18,12,54,15.00
2019,03,18,12,55,15.00
2019,03,18,12,56,15.00
2019,03,18,12,57,15.10
2019,03,18,12,58,15.20
2019,03,18,12,59,15.30
2019,03,18,13,00,15.40
2019,03,18,13,01,15.40
2019,03,18,13,02,15.50
2019,03,18,13,03,15.50
2019,03,18,13,04,15.60
2019,03,18,13,05,15.60
2019,03,18,13,06,15.70
2019,03,18,13,07,15.70
2019,03,18,13,08,15.70
2019,03,18,13,09,15.80
2019,03,18,13,10,15.80
2019,03,18,13,11,15.80
2019,03,18,13,12,15.90
2019,03,18,13,13,15.90
2019,03,18,13,14,16.00
2019,03,18,13,15,16.00
2019,03,18,13,16,16.00
2019,03,18,13,17,16.10
2019,03,18,13,18,16.10
2019,03,18,13,19,16.20
2019,03,18,13,20,16.20
2019,03,18,13,21,16.20
2019,03,18,13,22,16.20
2019,03,18,13,23,16.20
2019,03,18,13,24,16.30
2019,03,18,13,25,16.30
2019,03,18,13,26,16.40
2019,03,18,13,27,16.40
2019,03,18,13,28,16.50
2019,03,18,13,29,16.40
2019,03,18,13,30,16.40
2019,03,18,13,31,16.30
2019,03,18,13,32,16.30
2019,03,18,13,33,16.30
2019,03,18,13,34,16.30
2019,03,18,13,35,16.30
2019,03,18,13,36,16.20
2019,03,18,13,37,16.20
2019,03,18,13,38,16.10
2019,03,18,13,39,16.10
2019,03,18,13,40,16.10
2019,03,18,13,41,16.10
2019,03,18,13,42,16.20
2019,03,18,13,43,16.20
2019,03,18,13,44,16.30
2019,03,18,13,45,16.30
2019,03,18,13,46,16.30
2019,03,18,13,47,16.20
2019,03,18,13,48,16.20
2019,03,18,13,49,16.20
2019,03,18,13,50,16.30
2019,03,18,13,51,16.30
2019,03,18,13,52,16.30
2019,03,18,13,53,16.30
2019,03,18,13,54,16.30
2019,03,18,13,55,16.30
2019,03,18,13,56,16.30
2019,03,18,13,57,16.30
2019,03,18,13,58,16.30
2019,03,18,13,59,16.30
2019,03,18,14,00,16.30
2019,03,18,14,01,16.30
2019,03,18,14,02,16.30
2019,03,18,14,03,16.40
2019,03,18,14,04,16.40
2019,03,18,14,05,16.40
2019,03,18,14,06,16.50
2019,03,18,14,07,16.40
2019,03,18,14,08,16.50
2019,03,18,14,09,16.50
2019,03,18,14,10,16.50
2019,03,18,14,11,16.60
2019,03,18,14,12,16.70
2019,03,18,14,13,16.70
2019,03,18,14,14,16.80
2019,03,18,14,15,16.80
2019,03,18,14,16,16.70
2019,03,18,14,17,16.70
2019,03,18,14,18,16.70
2019,03,18,14,19,16.70
2019,03,18,14,20,16.60
2019,03,18,14,21,16.60
2019,03,18,14,22,16.60
2019,03,18,14,23,16.60
2019,03,18,14,24,16.60
2019,03,18,14,25,16.60
2019,03,18,14,26,16.60
2019,03,18,14,27,16.60
2019,03,18,14,28,16.60
2019,03,18,14,29,16.60
2019,03,18,14,30,16.70
2019,03,18,14,31,16.70
2019,03,18,14,32,16.70
2019,03,18,14,33,16.70
2019,03,18,14,34,16.80
2019,03,18,14,35,16.80
2019,03,18,14,36,16.90
2019,03,18,14,37,16.90
2019,03,18,14,38,17.00
2019,03,18,14,39,17.00
2019,03,18,14,40,17.10
2019,03,18,14,41,17.20
2019,03,18,14,42,17.20
2019,03,18,14,43,17.20
2019,03,18,14,44,17.20
2019,03,18,14,45,17.20
2019,03,18,14,46,17.20
2019,03,18,14,47,17.30
2019,03,18,14,48,17.30
2019,03,18,14,49,17.40
2019,03,18,14,50,17.40
2019,03,18,14,51,17.50
2019,03,18,14,52,17.50
2019,03,18,14,53,17.60
2019,03,18,14,54,17.60
2019,03,18,14,55,17.60
2019,03,18,14,56,17.60
2019,03,18,14,57,17.70
2019,03,18,14,58,17.70
2019,03,18,14,59,17.70
2019,03,18,15,00,17.70
2019,03,18,15,01,17.80
2019,03,18,15,02,17.80
2019,03,18,15,03,17.80
2019,03,18,15,04,17.80
2019,03,18,15,05,17.80
2019,03,18,15,06,17.80
2019,03,18,15,07,17.80
2019,03,18,15,08,17.80
2019,03,18,15,09,17.90
2019,03,18,15,10,17.90
2019,03,18,15,11,18.00
2019,03,18,15,12,18.00
2019,03,18,15,13,18.10
2019,03,18,15,14,18.10
2019,03,18,15,15,18.10
2019,03,18,15,16,18.10
2019,03,18,15,17,18.10
2019,03,18,15,18,18.10
2019,03,18,15,19,18.10
2019,03,18,15,20,18.20
2019,03,18,15,21,18.20
2019,03,18,15,22,18.30
2019,03,18,15,23,18.30
2019,03,18,15,24,18.30
2019,03,18,15,25,18.30
2019,03,18,15,26,18.30
2019,03,18,15,27,18.30
2019,03,18,15,28,18.30
2019,03,18,15,29,18.30
2019,03,18,15,30,18.30
2019,03,18,15,31,18.30
2019,03,18,15,32,18.20
2019,03,18,15,33,18.20
2019,03,18,15,34,18.20
2019,03,18,15,35,18.20
2019,03,18,15,36,18.20
2019,03,18,15,37,18.10
2019,03,18,15,38,18.10
2019,03,18,15,39,18.10
2019,03,18,15,40,18.10
2019,03,18,15,41,18.10
2019,03,18,15,42,18.10
2019,03,18,15,43,18.10
2019,03,18,15,44,18.00
2019,03,18,15,45,18.00
2019,03,18,15,46,18.00
2019,03,18,15,47,17.90
2019,03,18,15,48,17.90
2019,03,18,15,49,17.90
2019,03,18,15,50,17.90
2019,03,18,15,51,17.90
2019,03,18,15,52,17.90
2019,03,18,15,53,17.90
2019,03,18,15,54,17.90
2019,03,18,15,55,17.90
2019,03,18,15,56,17.90
2019,03,18,15,57,17.80
2019,03,18,15,58,17.80
2019,03,18,15,59,17.90
2019,03,18,16,00,17.90
2019,03,18,16,01,17.90
2019,03,18,16,02,17.90
2019,03,18,16,03,17.90
2019,03,18,16,04,17.90
2019,03,18,16,05,17.90
2019,03,18,16,06,17.90
2019,03,18,16,07,17.90
2019,03,18,16,08,17.90
2019,03,18,16,09,18.00
2019,03,18,16,10,18.00
2019,03,18,16,11,18.00
2019,03,18,16,12,18.00
2019,03,18,16,13,17.90
2019,03,18,16,14,17.90
2019,03,18,16,15,17.90
2019,03,18,16,16,17.90
2019,03,18,16,17,17.90
2019,03,18,16,18,17.90
2019,03,18,16,19,17.90
2019,03,18,16,20,18.00
2019,03,18,16,21,18.00
2019,03,18,16,22,18.00
2019,03,18,16,23,18.00
2019,03,18,16,24,17.90
2019,03,18,16,25,17.90
2019,03,18,16,26,17.90
2019,03,18,16,27,17.90
2019,03,18,16,28,17.90
2019,03,18,16,29,17.80
2019,03,18,16,30,17.80
2019,03,18,16,31,17.80
2019,03,18,16,32,17.70
2019,03,18,16,33,17.70
2019,03,18,16,34,17.60
2019,03,18,16,35,17.60
2019,03,18,16,36,17.50
2019,03,18,16,37,17.50
2019,03,18,16,38,17.50
2019,03,18,16,39,17.40
2019,03,18,16,40,17.40
2019,03,18,16,41,17.40
2019,03,18,16,42,17.40
2019,03,18,16,43,17.40
2019,03,18,16,44,17.40
2019,03,18,16,45,17.40
2019,03,18,16,46,17.30
2019,03,18,16,47,17.30
2019,03,18,16,48,17.30
2019,03,18,16,49,17.30
2019,03,18,16,50,17.30
2019,03,18,16,51,17.30
2019,03,18,16,52,17.30
2019,03,18,16,53,17.40
2019,03,18,16,54,17.40
2019,03,18,16,55,17.40
2019,03,18,16,56,17.40
2019,03,18,16,57,17.40
2019,03,18,16,58,17.40
2019,03,18,16,59,17.40
2019,03,18,17,00,17.40
2019,03,18,17,01,17.40
2019,03,18,17,02,17.40
2019,03,18,17,03,17.40
2019,03,18,17,04,17.40
2019,03,18,17,05,17.40
2019,03,18,17,06,17.30
2019,03,18,17,07,17.30
2019,03,18,17,08,17.30
2019,03,18,17,09,17.30
2019,03,18,17,10,17.30
2019,03,18,17,11,17.30
2019,03,18,17,12,17.20
2019,03,18,17,13,17.20
2019,03,18,17,14,17.20
2019,03,18,17,15,17.20
2019,03,18,17,16,17.20
2019,03,18,17,17,17.20
2019,03,18,17,18,17.20
2019,03,18,17,19,17.20
2019,03,18,17,20,17.10
2019,03,18,17,21,17.10
2019,03,18,17,22,17.10
2019,03,18,17,23,17.10
2019,03,18,17,24,17.10
2019,03,18,17,25,17.00
2019,03,18,17,26,17.00
2019,03,18,17,27,17.00
2019,03,18,17,28,17.00
2019,03,18,17,29,17.00
2019,03,18,17,30,17.00
2019,03,18,17,31,17.00
2019,03,18,17,32,16.90
2019,03,18,17,33,16.90
2019,03,18,17,34,16.90
2019,03,18,17,35,16.90
2019,03,18,17,36,16.90
2019,03,18,17,37,16.90
2019,03,18,17,38,16.80
2019,03,18,17,39,16.80
2019,03,18,17,40,16.80
2019,03,18,17,41,16.80
2019,03,18,17,42,16.80
2019,03,18,17,43,16.80